TimeCST,TemperatureF,Dew PointF,Humidity,Sea Level PressureIn,VisibilityMPH,Wind Direction,Wind SpeedMPH,Gust SpeedMPH,PrecipitationIn,Events,Conditions,WindDirDegrees,DateUTC
12:49 AM,53.6,33.8,47,30.36,10.0,SSW,8.1,-,N/A,,Partly Cloudy,200,2012-11-07 06:49:00
3:05 AM,46.4,32.0,57,30.36,10.0,North,4.6,-,N/A,,Scattered Clouds,10,2012-11-07 09:05:00
5:09 AM,39.2,32.0,75,30.36,10.0,Calm,Calm,-,N/A,,Scattered Clouds,0,2012-11-07 11:09:00
5:42 AM,39.2,32.0,75,30.36,10.0,Calm,Calm,-,N/A,,Scattered Clouds,0,2012-11-07 11:42:00
6:57 AM,37.4,30.2,75,30.38,10.0,Calm,Calm,-,N/A,,Scattered Clouds,0,2012-11-07 12:57:00
8:00 AM,41.0,32.0,70,30.40,10.0,Calm,Calm,-,N/A,,Scattered Clouds,0,2012-11-07 14:00:00
8:53 AM,51.8,35.6,54,30.42,10.0,Calm,Calm,-,N/A,,Partly Cloudy,0,2012-11-07 14:53:00
10:43 AM,64.4,33.8,32,30.40,10.0,East,9.2,-,N/A,,Partly Cloudy,80,2012-11-07 16:43:00
11:42 AM,66.2,32.0,28,30.38,10.0,East,17.3,-,N/A,,Partly Cloudy,100,2012-11-07 17:42:00
12:42 PM,68.0,32.0,26,30.35,10.0,East,9.2,-,N/A,,Scattered Clouds,100,2012-11-07 18:42:00
2:42 PM,69.8,30.2,23,30.29,10.0,East,11.5,-,N/A,,Scattered Clouds,80,2012-11-07 20:42:00
3:43 PM,69.8,26.6,20,30.28,10.0,SE,9.2,-,N/A,,Scattered Clouds,140,2012-11-07 21:43:00
4:44 PM,69.8,28.4,21,30.28,10.0,East,10.4,-,N/A,,Scattered Clouds,90,2012-11-07 22:44:00
5:40 PM,64.4,28.4,26,30.28,10.0,East,6.9,-,N/A,,Scattered Clouds,100,2012-11-07 23:40:00
6:41 PM,62.6,28.4,27,30.29,10.0,ESE,6.9,-,N/A,,Scattered Clouds,120,2012-11-08 00:41:00
7:41 PM,59.0,28.4,31,30.32,10.0,SE,8.1,-,N/A,,Clear,130,2012-11-08 01:41:00
8:41 PM,57.2,28.4,33,30.33,10.0,SE,9.2,-,N/A,,Clear,130,2012-11-08 02:41:00
9:40 PM,55.4,32.0,41,30.33,10.0,SSE,10.4,-,N/A,,Clear,150,2012-11-08 03:40:00
10:45 PM,50.0,32.0,50,30.34,10.0,SSW,6.9,-,N/A,,Clear,210,2012-11-08 04:45:00
11:41 PM,50.0,32.0,50,30.34,10.0,SW,5.8,-,N/A,,Clear,220,2012-11-08 05:41:00